Year,Month,Day,Hour,Minute,Value (Times are PST for temperature in C)
2018,07,12,00,00,16.60
2018,07,12,00,01,16.60
2018,07,12,00,02,16.60
2018,07,12,00,03,16.50
2018,07,12,00,04,16.50
2018,07,12,00,05,16.50
2018,07,12,00,06,16.50
2018,07,12,00,07,16.50
2018,07,12,00,08,16.40
2018,07,12,00,09,16.40
2018,07,12,00,10,16.40
2018,07,12,00,11,16.40
2018,07,12,00,12,16.40
2018,07,12,00,13,16.30
2018,07,12,00,14,16.30
2018,07,12,00,15,16.30
2018,07,12,00,16,16.30
2018,07,12,00,17,16.30
2018,07,12,00,18,16.30
2018,07,12,00,19,16.20
2018,07,12,00,20,16.20
2018,07,12,00,21,16.20
2018,07,12,00,22,16.20
2018,07,12,00,23,16.20
2018,07,12,00,24,16.20
2018,07,12,00,25,16.20
2018,07,12,00,26,16.20
2018,07,12,00,27,16.10
2018,07,12,00,28,16.10
2018,07,12,00,29,16.10
2018,07,12,00,30,16.10
2018,07,12,00,31,16.10
2018,07,12,00,32,16.10
2018,07,12,00,33,16.10
2018,07,12,00,34,16.10
2018,07,12,00,35,16.10
2018,07,12,00,36,16.10
2018,07,12,00,37,16.10
2018,07,12,00,38,16.10
2018,07,12,00,39,16.10
2018,07,12,00,40,16.10
2018,07,12,00,41,16.00
2018,07,12,00,42,16.00
2018,07,12,00,43,16.00
2018,07,12,00,44,16.00
2018,07,12,00,45,16.00
2018,07,12,00,46,16.00
2018,07,12,00,47,16.00
2018,07,12,00,48,16.00
2018,07,12,00,49,15.90
2018,07,12,00,50,15.90
2018,07,12,00,51,15.90
2018,07,12,00,52,15.90
2018,07,12,00,53,15.90
2018,07,12,00,54,15.90
2018,07,12,00,55,16.00
2018,07,12,00,56,16.00
2018,07,12,00,57,16.00
2018,07,12,00,58,16.00
2018,07,12,00,59,16.00
2018,07,12,01,00,16.00
2018,07,12,01,01,16.00
2018,07,12,01,02,16.00
2018,07,12,01,03,15.90
2018,07,12,01,04,15.90
2018,07,12,01,05,15.90
2018,07,12,01,06,15.90
2018,07,12,01,07,15.90
2018,07,12,01,08,15.90
2018,07,12,01,09,15.90
2018,07,12,01,10,15.80
2018,07,12,01,11,15.80
2018,07,12,01,12,15.80
2018,07,12,01,13,15.80
2018,07,12,01,14,15.70
2018,07,12,01,15,15.70
2018,07,12,01,16,15.70
2018,07,12,01,17,15.70
2018,07,12,01,18,15.70
2018,07,12,01,19,15.70
2018,07,12,01,20,15.60
2018,07,12,01,21,15.60
2018,07,12,01,22,15.60
2018,07,12,01,23,15.60
2018,07,12,01,24,15.60
2018,07,12,01,25,15.50
2018,07,12,01,26,15.50
2018,07,12,01,27,15.50
2018,07,12,01,28,15.50
2018,07,12,01,29,15.40
2018,07,12,01,30,15.40
2018,07,12,01,31,15.40
2018,07,12,01,32,15.50
2018,07,12,01,33,15.50
2018,07,12,01,34,15.50
2018,07,12,01,35,15.50
2018,07,12,01,36,15.50
2018,07,12,01,37,15.50
2018,07,12,01,38,15.50
2018,07,12,01,39,15.50
2018,07,12,01,40,15.40
2018,07,12,01,41,15.40
2018,07,12,01,42,15.40
2018,07,12,01,43,15.40
2018,07,12,01,44,15.40
2018,07,12,01,45,15.30
2018,07,12,01,46,15.30
2018,07,12,01,47,15.30
2018,07,12,01,48,15.30
2018,07,12,01,49,15.30
2018,07,12,01,50,15.20
2018,07,12,01,51,15.20
2018,07,12,01,52,15.20
2018,07,12,01,53,15.10
2018,07,12,01,54,15.10
2018,07,12,01,55,15.10
2018,07,12,01,56,15.10
2018,07,12,01,57,15.10
2018,07,12,01,58,15.00
2018,07,12,01,59,15.00
2018,07,12,02,00,15.00
2018,07,12,02,01,15.00
2018,07,12,02,02,15.00
2018,07,12,02,03,15.00
2018,07,12,02,04,15.10
2018,07,12,02,05,15.10
2018,07,12,02,06,15.10
2018,07,12,02,07,15.10
2018,07,12,02,08,15.10
2018,07,12,02,09,15.00
2018,07,12,02,10,15.00
2018,07,12,02,11,15.10
2018,07,12,02,12,15.10
2018,07,12,02,13,15.20
2018,07,12,02,14,15.30
2018,07,12,02,15,15.40
2018,07,12,02,16,15.50
2018,07,12,02,17,15.50
2018,07,12,02,18,15.60
2018,07,12,02,19,15.60
2018,07,12,02,20,15.60
2018,07,12,02,21,15.70
2018,07,12,02,22,15.70
2018,07,12,02,23,15.60
2018,07,12,02,24,15.60
2018,07,12,02,25,15.60
2018,07,12,02,26,15.60
2018,07,12,02,27,15.60
2018,07,12,02,28,15.50
2018,07,12,02,29,15.50
2018,07,12,02,30,15.40
2018,07,12,02,31,15.40
2018,07,12,02,32,15.40
2018,07,12,02,33,15.30
2018,07,12,02,34,15.30
2018,07,12,02,35,15.30
2018,07,12,02,36,15.30
2018,07,12,02,37,15.30
2018,07,12,02,38,15.20
2018,07,12,02,39,15.20
2018,07,12,02,40,15.20
2018,07,12,02,41,15.20
2018,07,12,02,42,15.10
2018,07,12,02,43,15.10
2018,07,12,02,44,15.10
2018,07,12,02,45,15.00
2018,07,12,02,46,15.00
2018,07,12,02,47,15.00
2018,07,12,02,48,14.90
2018,07,12,02,49,14.90
2018,07,12,02,50,14.90
2018,07,12,02,51,14.80
2018,07,12,02,52,14.80
2018,07,12,02,53,14.80
2018,07,12,02,54,14.80
2018,07,12,02,55,14.80
2018,07,12,02,56,14.80
2018,07,12,02,57,14.70
2018,07,12,02,58,14.70
2018,07,12,02,59,14.70
2018,07,12,03,00,14.70
2018,07,12,03,01,14.70
2018,07,12,03,02,14.70
2018,07,12,03,03,14.70
2018,07,12,03,04,14.60
2018,07,12,03,05,14.60
2018,07,12,03,06,14.60
2018,07,12,03,07,14.60
2018,07,12,03,08,14.60
2018,07,12,03,09,14.60
2018,07,12,03,10,14.60
2018,07,12,03,11,14.60
2018,07,12,03,12,14.50
2018,07,12,03,13,14.50
2018,07,12,03,14,14.40
2018,07,12,03,15,14.40
2018,07,12,03,16,14.40
2018,07,12,03,17,14.40
2018,07,12,03,18,14.40
2018,07,12,03,19,14.30
2018,07,12,03,20,14.30
2018,07,12,03,21,14.30
2018,07,12,03,22,14.30
2018,07,12,03,23,14.30
2018,07,12,03,24,14.20
2018,07,12,03,25,14.20
2018,07,12,03,26,14.20
2018,07,12,03,27,14.20
2018,07,12,03,28,14.20
2018,07,12,03,29,14.20
2018,07,12,03,30,14.20
2018,07,12,03,31,14.10
2018,07,12,03,32,14.10
2018,07,12,03,33,14.10
2018,07,12,03,34,14.00
2018,07,12,03,35,14.00
2018,07,12,03,36,14.00
2018,07,12,03,37,14.00
2018,07,12,03,38,13.90
2018,07,12,03,39,13.90
2018,07,12,03,40,13.90
2018,07,12,03,41,13.80
2018,07,12,03,42,13.80
2018,07,12,03,43,13.80
2018,07,12,03,44,13.80
2018,07,12,03,45,13.70
2018,07,12,03,46,13.70
2018,07,12,03,47,13.70
2018,07,12,03,48,13.70
2018,07,12,03,49,13.70
2018,07,12,03,50,13.70
2018,07,12,03,51,13.70
2018,07,12,03,52,13.70
2018,07,12,03,53,13.80
2018,07,12,03,54,13.70
2018,07,12,03,55,13.70
2018,07,12,03,56,13.70
2018,07,12,03,57,13.70
2018,07,12,03,58,13.70
2018,07,12,03,59,13.60
2018,07,12,04,00,13.60
2018,07,12,04,01,13.60
2018,07,12,04,02,13.60
2018,07,12,04,03,13.50
2018,07,12,04,04,13.50
2018,07,12,04,05,13.50
2018,07,12,04,06,13.50
2018,07,12,04,07,13.40
2018,07,12,04,08,13.40
2018,07,12,04,09,13.50
2018,07,12,04,10,13.50
2018,07,12,04,11,13.50
2018,07,12,04,12,13.50
2018,07,12,04,13,13.50
2018,07,12,04,14,13.50
2018,07,12,04,15,13.50
2018,07,12,04,16,13.50
2018,07,12,04,17,13.50
2018,07,12,04,18,13.50
2018,07,12,04,19,13.50
2018,07,12,04,20,13.50
2018,07,12,04,21,13.50
2018,07,12,04,22,13.50
2018,07,12,04,23,13.50
2018,07,12,04,24,13.50
2018,07,12,04,25,13.60
2018,07,12,04,26,13.60
2018,07,12,04,27,13.60
2018,07,12,04,28,13.60
2018,07,12,04,29,13.60
2018,07,12,04,30,13.50
2018,07,12,04,31,13.50
2018,07,12,04,32,13.50
2018,07,12,04,33,13.40
2018,07,12,04,34,13.40
2018,07,12,04,35,13.40
2018,07,12,04,36,13.40
2018,07,12,04,37,13.40
2018,07,12,04,38,13.40
2018,07,12,04,39,13.40
2018,07,12,04,40,13.40
2018,07,12,04,41,13.40
2018,07,12,04,42,13.40
2018,07,12,04,43,13.40
2018,07,12,04,44,13.40
2018,07,12,04,45,13.40
2018,07,12,04,46,13.40
2018,07,12,04,47,13.40
2018,07,12,04,48,13.40
2018,07,12,04,49,13.40
2018,07,12,04,50,13.40
2018,07,12,04,51,13.40
2018,07,12,04,52,13.40
2018,07,12,04,53,13.40
2018,07,12,04,54,13.40
2018,07,12,04,55,13.30
2018,07,12,04,56,13.30
2018,07,12,04,57,13.30
2018,07,12,04,58,13.30
2018,07,12,04,59,13.30
2018,07,12,05,00,13.30
2018,07,12,05,01,13.30
2018,07,12,05,02,13.30
2018,07,12,05,03,13.30
2018,07,12,05,04,13.30
2018,07,12,05,05,13.30
2018,07,12,05,06,13.30
2018,07,12,05,07,13.30
2018,07,12,05,08,13.30
2018,07,12,05,09,13.30
2018,07,12,05,10,13.30
2018,07,12,05,11,13.20
2018,07,12,05,12,13.20
2018,07,12,05,13,13.20
2018,07,12,05,14,13.20
2018,07,12,05,15,13.20
2018,07,12,05,16,13.20
2018,07,12,05,17,13.20
2018,07,12,05,18,13.20
2018,07,12,05,19,13.20
2018,07,12,05,20,13.20
2018,07,12,05,21,13.20
2018,07,12,05,22,13.10
2018,07,12,05,23,13.10
2018,07,12,05,24,13.10
2018,07,12,05,25,13.10
2018,07,12,05,26,13.20
2018,07,12,05,27,13.20
2018,07,12,05,28,13.20
2018,07,12,05,29,13.20
2018,07,12,05,30,13.20
2018,07,12,05,31,13.20
2018,07,12,05,32,13.20
2018,07,12,05,33,13.20
2018,07,12,05,34,13.20
2018,07,12,05,35,13.20
2018,07,12,05,36,13.20
2018,07,12,05,37,13.10
2018,07,12,05,38,13.10
2018,07,12,05,39,13.10
2018,07,12,05,40,13.10
2018,07,12,05,41,13.10
2018,07,12,05,42,13.10
2018,07,12,05,43,13.10
2018,07,12,05,44,13.20
2018,07,12,05,45,13.20
2018,07,12,05,46,13.20
2018,07,12,05,47,13.20
2018,07,12,05,48,13.20
2018,07,12,05,49,13.20
2018,07,12,05,50,13.10
2018,07,12,05,51,13.20
2018,07,12,05,52,13.20
2018,07,12,05,53,13.20
2018,07,12,05,54,13.20
2018,07,12,05,55,13.20
2018,07,12,05,56,13.20
2018,07,12,05,57,13.20
2018,07,12,05,58,13.20
2018,07,12,05,59,13.20
2018,07,12,06,00,13.20
2018,07,12,06,01,13.20
2018,07,12,06,02,13.20
2018,07,12,06,03,13.20
2018,07,12,06,04,13.20
2018,07,12,06,05,13.20
2018,07,12,06,06,13.20
2018,07,12,06,07,13.30
2018,07,12,06,08,13.30
2018,07,12,06,09,13.30
2018,07,12,06,10,13.30
2018,07,12,06,11,13.30
2018,07,12,06,12,13.30
2018,07,12,06,13,13.30
2018,07,12,06,14,13.30
2018,07,12,06,15,13.30
2018,07,12,06,16,13.30
2018,07,12,06,17,13.30
2018,07,12,06,18,13.30
2018,07,12,06,19,13.30
2018,07,12,06,20,13.30
2018,07,12,06,21,13.40
2018,07,12,06,22,13.40
2018,07,12,06,23,13.40
2018,07,12,06,24,13.40
2018,07,12,06,25,13.40
2018,07,12,06,26,13.40
2018,07,12,06,27,13.40
2018,07,12,06,28,13.40
2018,07,12,06,29,13.40
2018,07,12,06,30,13.40
2018,07,12,06,31,13.40
2018,07,12,06,32,13.40
2018,07,12,06,33,13.40
2018,07,12,06,34,13.40
2018,07,12,06,35,13.40
2018,07,12,06,36,13.40
2018,07,12,06,37,13.40
2018,07,12,06,38,13.40
2018,07,12,06,39,13.40
2018,07,12,06,40,13.40
2018,07,12,06,41,13.50
2018,07,12,06,42,13.50
2018,07,12,06,43,13.60
2018,07,12,06,44,13.70
2018,07,12,06,45,13.70
2018,07,12,06,46,13.80
2018,07,12,06,47,13.80
2018,07,12,06,48,13.90
2018,07,12,06,49,14.00
2018,07,12,06,50,14.10
2018,07,12,06,51,14.20
2018,07,12,06,52,14.30
2018,07,12,06,53,14.30
2018,07,12,06,54,14.40
2018,07,12,06,55,14.50
2018,07,12,06,56,14.60
2018,07,12,06,57,14.70
2018,07,12,06,58,14.80
2018,07,12,06,59,14.90
2018,07,12,07,00,15.00
2018,07,12,07,01,15.10
2018,07,12,07,02,15.20
2018,07,12,07,03,15.40
2018,07,12,07,04,15.50
2018,07,12,07,05,15.70
2018,07,12,07,06,15.80
2018,07,12,07,07,16.00
2018,07,12,07,08,16.10
2018,07,12,07,09,16.20
2018,07,12,07,10,16.30
2018,07,12,07,11,16.40
2018,07,12,07,12,16.50
2018,07,12,07,13,16.60
2018,07,12,07,14,16.70
2018,07,12,07,15,16.80
2018,07,12,07,16,16.90
2018,07,12,07,17,16.90
2018,07,12,07,18,17.00
2018,07,12,07,19,17.10
2018,07,12,07,20,17.10
2018,07,12,07,21,17.20
2018,07,12,07,22,17.30
2018,07,12,07,23,17.40
2018,07,12,07,24,17.50
2018,07,12,07,25,17.50
2018,07,12,07,26,17.60
2018,07,12,07,27,17.60
2018,07,12,07,28,17.60
2018,07,12,07,29,17.60
2018,07,12,07,30,17.70
2018,07,12,07,31,17.80
2018,07,12,07,32,17.80
2018,07,12,07,33,18.00
2018,07,12,07,34,18.20
2018,07,12,07,35,18.40
2018,07,12,07,36,18.50
2018,07,12,07,37,18.70
2018,07,12,07,38,18.80
2018,07,12,07,39,18.90
2018,07,12,07,40,19.00
2018,07,12,07,41,19.10
2018,07,12,07,42,19.10
2018,07,12,07,43,19.20
2018,07,12,07,44,19.30
2018,07,12,07,45,19.40
2018,07,12,07,46,19.50
2018,07,12,07,47,19.60
2018,07,12,07,48,19.70
2018,07,12,07,49,19.80
2018,07,12,07,50,19.90
2018,07,12,07,51,20.00
2018,07,12,07,52,20.10
2018,07,12,07,53,20.20
2018,07,12,07,54,20.20
2018,07,12,07,55,20.30
2018,07,12,07,56,20.30
2018,07,12,07,57,20.40
2018,07,12,07,58,20.40
2018,07,12,07,59,20.50
2018,07,12,08,00,20.50
2018,07,12,08,01,20.60
2018,07,12,08,02,20.60
2018,07,12,08,03,20.60
2018,07,12,08,04,20.60
2018,07,12,08,05,20.70
2018,07,12,08,06,20.70
2018,07,12,08,07,20.70
2018,07,12,08,08,20.60
2018,07,12,08,09,20.70
2018,07,12,08,10,20.70
2018,07,12,08,11,20.70
2018,07,12,08,12,20.70
2018,07,12,08,13,20.70
2018,07,12,08,14,20.70
2018,07,12,08,15,20.70
2018,07,12,08,16,20.80
2018,07,12,08,17,20.80
2018,07,12,08,18,20.90
2018,07,12,08,19,21.00
2018,07,12,08,20,21.10
2018,07,12,08,21,21.10
2018,07,12,08,22,21.10
2018,07,12,08,23,21.00
2018,07,12,08,24,21.00
2018,07,12,08,25,21.10
2018,07,12,08,26,21.20
2018,07,12,08,27,21.20
2018,07,12,08,28,21.30
2018,07,12,08,29,21.40
2018,07,12,08,30,21.40
2018,07,12,08,31,21.40
2018,07,12,08,32,21.30
2018,07,12,08,33,21.30
2018,07,12,08,34,21.40
2018,07,12,08,35,21.40
2018,07,12,08,36,21.30
2018,07,12,08,37,21.30
2018,07,12,08,38,21.30
2018,07,12,08,39,21.40
2018,07,12,08,40,21.40
2018,07,12,08,41,21.40
2018,07,12,08,42,21.50
2018,07,12,08,43,21.60
2018,07,12,08,44,21.60
2018,07,12,08,45,21.70
2018,07,12,08,46,21.80
2018,07,12,08,47,21.90
2018,07,12,08,48,22.10
2018,07,12,08,49,22.20
2018,07,12,08,50,22.40
2018,07,12,08,51,22.60
2018,07,12,08,52,22.70
2018,07,12,08,53,22.60
2018,07,12,08,54,22.60
2018,07,12,08,55,22.60
2018,07,12,08,56,22.60
2018,07,12,08,57,22.70
2018,07,12,08,58,22.70
2018,07,12,08,59,22.70
2018,07,12,09,00,22.70
2018,07,12,09,01,22.80
2018,07,12,09,02,22.80
2018,07,12,09,03,22.80
2018,07,12,09,04,22.80
2018,07,12,09,05,22.70
2018,07,12,09,06,22.80
2018,07,12,09,07,22.80
2018,07,12,09,08,22.80
2018,07,12,09,09,22.70
2018,07,12,09,10,22.60
2018,07,12,09,11,22.60
2018,07,12,09,12,22.50
2018,07,12,09,13,22.50
2018,07,12,09,14,22.50
2018,07,12,09,15,22.50
2018,07,12,09,16,22.50
2018,07,12,09,17,22.50
2018,07,12,09,18,22.50
2018,07,12,09,19,22.50
2018,07,12,09,20,22.60
2018,07,12,09,21,22.70
2018,07,12,09,22,22.80
2018,07,12,09,23,22.80
2018,07,12,09,24,22.80
2018,07,12,09,25,22.80
2018,07,12,09,26,22.80
2018,07,12,09,27,22.90
2018,07,12,09,28,22.90
2018,07,12,09,29,23.00
2018,07,12,09,30,23.00
2018,07,12,09,31,23.00
2018,07,12,09,32,23.00
2018,07,12,09,33,23.10
2018,07,12,09,34,23.10
2018,07,12,09,35,23.10
2018,07,12,09,36,23.20
2018,07,12,09,37,23.10
2018,07,12,09,38,23.10
2018,07,12,09,39,23.10
2018,07,12,09,40,23.10
2018,07,12,09,41,23.00
2018,07,12,09,42,22.90
2018,07,12,09,43,23.00
2018,07,12,09,44,23.10
2018,07,12,09,45,23.20
2018,07,12,09,46,23.20
2018,07,12,09,47,23.30
2018,07,12,09,48,23.40
2018,07,12,09,49,23.40
2018,07,12,09,50,23.40
2018,07,12,09,51,23.30
2018,07,12,09,52,23.20
2018,07,12,09,53,23.10
2018,07,12,09,54,23.00
2018,07,12,09,55,22.90
2018,07,12,09,56,22.80
2018,07,12,09,57,22.80
2018,07,12,09,58,22.80
2018,07,12,09,59,22.80
2018,07,12,10,00,22.80
2018,07,12,10,01,22.90
2018,07,12,10,02,22.90
2018,07,12,10,03,22.90
2018,07,12,10,04,22.90
2018,07,12,10,05,23.00
2018,07,12,10,06,23.00
2018,07,12,10,07,23.10
2018,07,12,10,08,23.10
2018,07,12,10,09,23.10
2018,07,12,10,10,23.20
2018,07,12,10,11,23.10
2018,07,12,10,12,23.00
2018,07,12,10,13,22.90
2018,07,12,10,14,22.80
2018,07,12,10,15,22.80
2018,07,12,10,16,22.80
2018,07,12,10,17,22.80
2018,07,12,10,18,22.80
2018,07,12,10,19,22.90
2018,07,12,10,20,23.00
2018,07,12,10,21,23.00
2018,07,12,10,22,23.10
2018,07,12,10,23,23.10
2018,07,12,10,24,23.10
2018,07,12,10,25,22.90
2018,07,12,10,26,22.90
2018,07,12,10,27,22.90
2018,07,12,10,28,22.90
2018,07,12,10,29,23.00
2018,07,12,10,30,23.10
2018,07,12,10,31,23.20
2018,07,12,10,32,23.10
2018,07,12,10,33,23.00
2018,07,12,10,34,22.90
2018,07,12,10,35,22.90
2018,07,12,10,36,22.90
2018,07,12,10,37,22.80
2018,07,12,10,38,22.80
2018,07,12,10,39,22.80
2018,07,12,10,40,22.80
2018,07,12,10,41,22.70
2018,07,12,10,42,22.70
2018,07,12,10,43,22.80
2018,07,12,10,44,22.90
2018,07,12,10,45,22.90
2018,07,12,10,46,23.00
2018,07,12,10,47,23.10
2018,07,12,10,48,23.20
2018,07,12,10,49,23.30
2018,07,12,10,50,23.40
2018,07,12,10,51,23.40
2018,07,12,10,52,23.40
2018,07,12,10,53,23.40
2018,07,12,10,54,23.50
2018,07,12,10,55,23.60
2018,07,12,10,56,23.70
2018,07,12,10,57,23.70
2018,07,12,10,58,23.70
2018,07,12,10,59,23.70
2018,07,12,11,00,23.70
2018,07,12,11,01,23.80
2018,07,12,11,02,24.00
2018,07,12,11,03,24.00
2018,07,12,11,04,23.90
2018,07,12,11,05,23.70
2018,07,12,11,06,23.60
2018,07,12,11,07,23.50
2018,07,12,11,08,23.40
2018,07,12,11,09,23.40
2018,07,12,11,10,23.40
2018,07,12,11,11,23.40
2018,07,12,11,12,23.40
2018,07,12,11,13,23.40
2018,07,12,11,14,23.50
2018,07,12,11,15,23.50
2018,07,12,11,16,23.60
2018,07,12,11,17,23.60
2018,07,12,11,18,23.50
2018,07,12,11,19,23.50
2018,07,12,11,20,23.40
2018,07,12,11,21,23.50
2018,07,12,11,22,23.50
2018,07,12,11,23,23.50
2018,07,12,11,24,23.60
2018,07,12,11,25,23.70
2018,07,12,11,26,23.70
2018,07,12,11,27,23.70
2018,07,12,11,28,23.70
2018,07,12,11,29,23.70
2018,07,12,11,30,23.70
2018,07,12,11,31,23.70
2018,07,12,11,32,23.70
2018,07,12,11,33,23.70
2018,07,12,11,34,23.70
2018,07,12,11,35,23.70
2018,07,12,11,36,23.70
2018,07,12,11,37,23.80
2018,07,12,11,38,23.80
2018,07,12,11,39,23.60
2018,07,12,11,40,23.60
2018,07,12,11,41,23.60
2018,07,12,11,42,23.80
2018,07,12,11,43,23.90
2018,07,12,11,44,24.00
2018,07,12,11,45,24.10
2018,07,12,11,46,24.00
2018,07,12,11,47,23.90
2018,07,12,11,48,23.90
2018,07,12,11,49,23.90
2018,07,12,11,50,24.00
2018,07,12,11,51,24.10
2018,07,12,11,52,24.10
2018,07,12,11,53,24.20
2018,07,12,11,54,24.20
2018,07,12,11,55,24.20
2018,07,12,11,56,24.10
2018,07,12,11,57,24.00
2018,07,12,11,58,24.00
2018,07,12,11,59,23.90
2018,07,12,12,00,23.90
2018,07,12,12,01,23.90
2018,07,12,12,02,24.00
2018,07,12,12,03,24.00
2018,07,12,12,04,23.90
2018,07,12,12,05,23.90
2018,07,12,12,06,23.90
2018,07,12,12,07,24.00
2018,07,12,12,08,24.00
2018,07,12,12,09,24.10
2018,07,12,12,10,24.10
2018,07,12,12,11,24.20
2018,07,12,12,12,24.40
2018,07,12,12,13,24.50
2018,07,12,12,14,24.40
2018,07,12,12,15,24.30
2018,07,12,12,16,24.30
2018,07,12,12,17,24.30
2018,07,12,12,18,24.30
2018,07,12,12,19,24.40
2018,07,12,12,20,24.40
2018,07,12,12,21,24.40
2018,07,12,12,22,24.30
2018,07,12,12,23,24.40
2018,07,12,12,24,24.40
2018,07,12,12,25,24.50
2018,07,12,12,26,24.50
2018,07,12,12,27,24.60
2018,07,12,12,28,24.60
2018,07,12,12,29,24.60
2018,07,12,12,30,24.60
2018,07,12,12,31,24.60
2018,07,12,12,32,24.60
2018,07,12,12,33,24.60
2018,07,12,12,34,24.60
2018,07,12,12,35,24.50
2018,07,12,12,36,24.60
2018,07,12,12,37,24.60
2018,07,12,12,38,24.60
2018,07,12,12,39,24.50
2018,07,12,12,40,24.40
2018,07,12,12,41,24.40
2018,07,12,12,42,24.30
2018,07,12,12,43,24.40
2018,07,12,12,44,24.60
2018,07,12,12,45,24.70
2018,07,12,12,46,24.80
2018,07,12,12,47,24.90
2018,07,12,12,48,25.00
2018,07,12,12,49,25.10
2018,07,12,12,50,25.10
2018,07,12,12,51,25.10
2018,07,12,12,52,25.00
2018,07,12,12,53,25.00
2018,07,12,12,54,25.10
2018,07,12,12,55,25.20
2018,07,12,12,56,25.30
2018,07,12,12,57,25.30
2018,07,12,12,58,25.30
2018,07,12,12,59,25.30
2018,07,12,13,00,25.30
2018,07,12,13,01,25.20
2018,07,12,13,02,25.20
2018,07,12,13,03,25.20
2018,07,12,13,04,25.20
2018,07,12,13,05,25.20
2018,07,12,13,06,25.10
2018,07,12,13,07,25.20
2018,07,12,13,08,25.20
2018,07,12,13,09,25.30
2018,07,12,13,10,25.40
2018,07,12,13,11,25.60
2018,07,12,13,12,25.70
2018,07,12,13,13,25.70
2018,07,12,13,14,25.70
2018,07,12,13,15,25.60
2018,07,12,13,16,25.60
2018,07,12,13,17,25.60
2018,07,12,13,18,25.70
2018,07,12,13,19,25.70
2018,07,12,13,20,25.80
2018,07,12,13,21,25.80
2018,07,12,13,22,25.60
2018,07,12,13,23,25.60
2018,07,12,13,24,25.60
2018,07,12,13,25,25.50
2018,07,12,13,26,25.40
2018,07,12,13,27,25.40
2018,07,12,13,28,25.50
2018,07,12,13,29,25.50
2018,07,12,13,30,25.60
2018,07,12,13,31,25.70
2018,07,12,13,32,25.70
2018,07,12,13,33,25.80
2018,07,12,13,34,25.90
2018,07,12,13,35,25.90
2018,07,12,13,36,25.80
2018,07,12,13,37,25.70
2018,07,12,13,38,25.70
2018,07,12,13,39,25.60
2018,07,12,13,40,25.60
2018,07,12,13,41,25.60
2018,07,12,13,42,25.60
2018,07,12,13,43,25.70
2018,07,12,13,44,25.80
2018,07,12,13,45,25.90
2018,07,12,13,46,25.90
2018,07,12,13,47,25.90
2018,07,12,13,48,25.90
2018,07,12,13,49,25.80
2018,07,12,13,50,25.70
2018,07,12,13,51,25.60
2018,07,12,13,52,25.60
2018,07,12,13,53,25.60
2018,07,12,13,54,25.50
2018,07,12,13,55,25.50
2018,07,12,13,56,25.60
2018,07,12,13,57,25.60
2018,07,12,13,58,25.70
2018,07,12,13,59,25.70
2018,07,12,14,00,25.70
2018,07,12,14,01,25.70
2018,07,12,14,02,25.60
2018,07,12,14,03,25.60
2018,07,12,14,04,25.60
2018,07,12,14,05,25.70
2018,07,12,14,06,25.80
2018,07,12,14,07,25.90
2018,07,12,14,08,26.00
2018,07,12,14,09,26.20
2018,07,12,14,10,26.30
2018,07,12,14,11,26.30
2018,07,12,14,12,26.30
2018,07,12,14,13,26.20
2018,07,12,14,14,26.10
2018,07,12,14,15,26.10
2018,07,12,14,16,26.10
2018,07,12,14,17,26.10
2018,07,12,14,18,26.20
2018,07,12,14,19,26.20
2018,07,12,14,20,26.30
2018,07,12,14,21,26.30
2018,07,12,14,22,26.10
2018,07,12,14,23,26.00
2018,07,12,14,24,25.90
2018,07,12,14,25,25.90
2018,07,12,14,26,26.00
2018,07,12,14,27,26.10
2018,07,12,14,28,26.20
2018,07,12,14,29,26.20
2018,07,12,14,30,26.10
2018,07,12,14,31,26.00
2018,07,12,14,32,25.90
2018,07,12,14,33,25.90
2018,07,12,14,34,26.00
2018,07,12,14,35,26.10
2018,07,12,14,36,26.20
2018,07,12,14,37,26.20
2018,07,12,14,38,26.30
2018,07,12,14,39,26.30
2018,07,12,14,40,26.30
2018,07,12,14,41,26.20
2018,07,12,14,42,26.20
2018,07,12,14,43,26.20
2018,07,12,14,44,26.30
2018,07,12,14,45,26.20
2018,07,12,14,46,26.20
2018,07,12,14,47,26.20
2018,07,12,14,48,26.20
2018,07,12,14,49,26.30
2018,07,12,14,50,26.30
2018,07,12,14,51,26.40
2018,07,12,14,52,26.40
2018,07,12,14,53,26.50
2018,07,12,14,54,26.50
2018,07,12,14,55,26.50
2018,07,12,14,56,26.50
2018,07,12,14,57,26.40
2018,07,12,14,58,26.30
2018,07,12,14,59,26.30
2018,07,12,15,00,26.40
2018,07,12,15,01,26.60
2018,07,12,15,02,26.70
2018,07,12,15,03,26.70
2018,07,12,15,04,26.70
2018,07,12,15,05,26.70
2018,07,12,15,06,26.70
2018,07,12,15,07,26.70
2018,07,12,15,08,26.70
2018,07,12,15,09,26.70
2018,07,12,15,10,26.70
2018,07,12,15,11,26.70
2018,07,12,15,12,26.80
2018,07,12,15,13,26.80
2018,07,12,15,14,26.90
2018,07,12,15,15,26.90
2018,07,12,15,16,27.00
2018,07,12,15,17,27.00
2018,07,12,15,18,27.00
2018,07,12,15,19,27.00
2018,07,12,15,20,27.00
2018,07,12,15,21,26.90
2018,07,12,15,22,26.80
2018,07,12,15,23,26.80
2018,07,12,15,24,26.70
2018,07,12,15,25,26.70
2018,07,12,15,26,26.80
2018,07,12,15,27,26.90
2018,07,12,15,28,26.90
2018,07,12,15,29,26.80
2018,07,12,15,30,26.80
2018,07,12,15,31,26.80
2018,07,12,15,32,26.80
2018,07,12,15,33,26.80
2018,07,12,15,34,26.90
2018,07,12,15,35,26.90
2018,07,12,15,36,27.00
2018,07,12,15,37,27.00
2018,07,12,15,38,27.10
2018,07,12,15,39,27.10
2018,07,12,15,40,27.10
2018,07,12,15,41,27.00
2018,07,12,15,42,26.90
2018,07,12,15,43,26.80
2018,07,12,15,44,26.70
2018,07,12,15,45,26.60
2018,07,12,15,46,26.60
2018,07,12,15,47,26.60
2018,07,12,15,48,26.70
2018,07,12,15,49,26.80
2018,07,12,15,50,26.90
2018,07,12,15,51,26.90
2018,07,12,15,52,26.90
2018,07,12,15,53,26.90
2018,07,12,15,54,26.90
2018,07,12,15,55,26.80
2018,07,12,15,56,26.80
2018,07,12,15,57,26.70
2018,07,12,15,58,26.70
2018,07,12,15,59,26.70
2018,07,12,16,00,26.70
2018,07,12,16,01,26.70
2018,07,12,16,02,26.80
2018,07,12,16,03,26.80
2018,07,12,16,04,26.80
2018,07,12,16,05,26.80
2018,07,12,16,06,26.80
2018,07,12,16,07,26.90
2018,07,12,16,08,26.90
2018,07,12,16,09,27.00
2018,07,12,16,10,26.90
2018,07,12,16,11,26.90
2018,07,12,16,12,26.90
2018,07,12,16,13,26.90
2018,07,12,16,14,26.90
2018,07,12,16,15,26.90
2018,07,12,16,16,26.90
2018,07,12,16,17,27.00
2018,07,12,16,18,27.00
2018,07,12,16,19,26.90
2018,07,12,16,20,26.80
2018,07,12,16,21,26.80
2018,07,12,16,22,26.90
2018,07,12,16,23,26.90
2018,07,12,16,24,26.90
2018,07,12,16,25,27.00
2018,07,12,16,26,27.00
2018,07,12,16,27,27.00
2018,07,12,16,28,27.00
2018,07,12,16,29,27.10
2018,07,12,16,30,27.20
2018,07,12,16,31,27.30
2018,07,12,16,32,27.10
2018,07,12,16,33,27.00
2018,07,12,16,34,27.00
2018,07,12,16,35,26.90
2018,07,12,16,36,26.90
2018,07,12,16,37,27.00
2018,07,12,16,38,27.00
2018,07,12,16,39,27.00
2018,07,12,16,40,27.00
2018,07,12,16,41,27.00
2018,07,12,16,42,27.10
2018,07,12,16,43,27.10
2018,07,12,16,44,27.00
2018,07,12,16,45,27.10
2018,07,12,16,46,27.10
2018,07,12,16,47,27.10
2018,07,12,16,48,27.10
2018,07,12,16,49,27.10
2018,07,12,16,50,27.10
2018,07,12,16,51,27.10
2018,07,12,16,52,27.00
2018,07,12,16,53,27.00
2018,07,12,16,54,27.00
2018,07,12,16,55,27.00
2018,07,12,16,56,27.00
2018,07,12,16,57,27.00
2018,07,12,16,58,27.00
2018,07,12,16,59,27.00
2018,07,12,17,00,27.00
2018,07,12,17,01,27.10
2018,07,12,17,02,27.00
2018,07,12,17,03,27.00
2018,07,12,17,04,27.00
2018,07,12,17,05,27.00
2018,07,12,17,06,27.10
2018,07,12,17,07,27.10
2018,07,12,17,08,27.00
2018,07,12,17,09,27.00
2018,07,12,17,10,27.00
2018,07,12,17,11,27.10
2018,07,12,17,12,27.10
2018,07,12,17,13,27.00
2018,07,12,17,14,26.90
2018,07,12,17,15,26.90
2018,07,12,17,16,27.00
2018,07,12,17,17,27.10
2018,07,12,17,18,27.10
2018,07,12,17,19,27.10